Location: Cactus School
(34.5700°N, 118.0931°W)
Time: 07:41:16
(UTC-08:00)

A-11 Canister half - Pass Details

Date: 19 November 2019
Orbit: 1515 x 1685 km, 47.2° (Epoch: 05 December)

Event Time Altitude Azimuth Distance (km) Brightness Sun altitude
Rises 22:04:04 0° 300° (WNW) 4,941 12.0 -64.4°
Reaches altitude 10° 22:07:25 10° 306° (NW) 3,952 11.4 -65.0°
Enters shadow 22:07:54 12° 307° (NW) 3,815 11.3 -65.1°
